Terug naar catalogus

COSMOS 312

ActiefMilitairLEO
NORAD 4254·PAYLOAD·🇷🇺 Russia

Gelanceerd Nov 24, 1969 vanaf Plesetsk Cosmodrome

Loading…

Volgende Passages (komende 24 uur)

TLE

VersSource: Space-Track

Epoch: Sep 14, 2026, 14:05 UTC

1 04254U 69103A   26257.58722537 -.00000005  00000-0  33460-4 0  9991
2 04254  74.0207 298.8748 0022552 161.3434   4.2802 13.27213848751504

Volg COSMOS 312 in realtime met AllMySat

Download on the App Store